DW4915 Mazarete ES current weather conditions

sailwx.info

Wind from 189

Air temperature 14.4° C
Dewpoint 9.0° C

Last reported at 2015-Jul-07 05:51 UTC.
Time now 2015-Jul-07 06:50 UTC

Location: N 40°58' W 002°11'.
View on Google Maps.

See reports from other nearby stations

  
Tides and Currents Weather Stations Pressure Air Temp Water Temp Dewpoint Dewpoint Depression Visibility Wind Speed Wind Dir Waves Ship Positions
date/time (UTC)wind fromknots sea level pressurealtimeterstation pressurevisibilityair tempwater tempwave heightnotes
2015-Jul-07 05:51 189 14.4
2015-Jul-07 05:46 189 14.4
2015-Jul-07 05:41 189 13.9
2015-Jul-07 05:36 189 13.9
2015-Jul-07 05:31 190 13.3
2015-Jul-07 05:26 189 13.3
2015-Jul-07 05:21 189 13.3
2015-Jul-07 05:16 189 12.8
2015-Jul-07 05:11 189 12.8
2015-Jul-07 05:06 189 12.8
2015-Jul-06 22:31 189 17.2
2015-Jul-06 22:26 189 17.2
2015-Jul-06 22:21 189 17.2
2015-Jul-06 22:16 189 17.2
2015-Jul-06 22:11 189 17.2
2015-Jul-06 22:06 189 17.2
2015-Jul-06 22:01 189 17.2
2015-Jul-06 21:56 189 17.2
2015-Jul-06 21:51 189 17.2
2015-Jul-06 21:46 189 17.8
2015-Jul-06 21:41 188 17.8
2015-Jul-06 21:36 189 17.8
2015-Jul-06 21:31 189 17.8
2015-Jul-06 21:26 190 18.3
2015-Jul-06 21:21 189 18.3
2015-Jul-06 21:16 189 18.3
2015-Jul-06 21:11 189 18.9
2015-Jul-06 21:06 188 18.9
2015-Jul-06 21:01 189 18.9
2015-Jul-06 20:56 189 19.4
2015-Jul-06 20:51 191 19.4
2015-Jul-06 20:46 189 19.4
2015-Jul-06 20:41 189 20.0
2015-Jul-06 20:36 189 20.0
2015-Jul-06 20:31 189 20.0
2015-Jul-06 20:26 189 20.6
2015-Jul-06 20:21 189 20.6
2015-Jul-06 20:16 189 21.1
2015-Jul-06 20:11 189 21.7
2015-Jul-06 20:06 189 21.7
2015-Jul-06 20:01 189 22.8
2015-Jul-06 19:56 189 23.3
2015-Jul-06 19:51 190 23.9
2015-Jul-06 19:46 189 24.4
2015-Jul-06 19:41 190 25.0
2015-Jul-06 19:36 191 26.1
2015-Jul-06 19:31 189 27.2
2015-Jul-06 19:26 189 27.8
2015-Jul-06 19:21 189 28.9
2015-Jul-06 19:16 192 29.4
2015-Jul-06 19:11 189 30.0
2015-Jul-06 19:06 188 30.6
2015-Jul-06 19:01 190 31.1
2015-Jul-06 18:56 189 31.1
2015-Jul-06 18:51 190 31.7
2015-Jul-06 18:46 174 31.7
2015-Jul-06 18:41 192 31.7
2015-Jul-06 18:36 194 32.2
2015-Jul-06 18:31 187 32.2
2015-Jul-06 18:26 244 32.8
2015-Jul-06 18:21 221 32.8
2015-Jul-06 18:16 216 32.8
2015-Jul-06 18:11 225 33.3
2015-Jul-06 18:06 191 33.3
2015-Jul-06 18:01 211 33.3
2015-Jul-06 17:56 186 33.3
2015-Jul-06 17:51 221 33.3
2015-Jul-06 17:46 260 33.3
2015-Jul-06 17:41 274 33.9
2015-Jul-06 17:36 256 33.9
2015-Jul-06 17:31 221 33.9
2015-Jul-06 17:26 183 33.9
2015-Jul-06 17:21 248 33.9
2015-Jul-06 17:16 232 33.9
2015-Jul-06 17:11 183 33.9
2015-Jul-06 17:06 185 33.3
2015-Jul-06 17:01 203 33.3
2015-Jul-06 16:56 238 33.3
2015-Jul-06 16:51 263 33.3
2015-Jul-06 16:46 173 33.9
2015-Jul-06 16:41 256 33.3
2015-Jul-06 16:36 181 33.9
2015-Jul-06 16:31 240 33.9
2015-Jul-06 16:26 229 33.9
2015-Jul-06 16:21 228 33.9
2015-Jul-06 16:16 227 34.4
2015-Jul-06 16:06 238 34.4
2015-Jul-06 16:01 187 34.4
2015-Jul-06 15:56 205 34.4
2015-Jul-06 15:51 221 34.4
2015-Jul-06 15:46 200 34.4
2015-Jul-06 15:41 185 33.9
2015-Jul-06 15:36 231 34.4
2015-Jul-06 15:31 178 35.0
2015-Jul-06 15:26 180 34.4
2015-Jul-06 15:21 192 34.4
2015-Jul-06 15:16 178 34.4
2015-Jul-06 15:11 275 34.4
2015-Jul-06 15:06 269 34.4
2015-Jul-06 15:01 266 34.4
2015-Jul-06 14:56 177 34.4
2015-Jul-06 14:51 211 34.4
2015-Jul-06 14:46 193 34.4
2015-Jul-06 14:41 238 34.4
2015-Jul-06 14:36 248 34.4
2015-Jul-06 14:31 277 34.4
2015-Jul-06 14:26 251 34.4
2015-Jul-06 14:21 237 34.4
2015-Jul-06 14:16 247 34.4
2015-Jul-06 14:11 287 34.4
2015-Jul-06 14:06 275 34.4
2015-Jul-06 14:01 248 34.4
2015-Jul-06 13:56 257 34.4
2015-Jul-06 13:51 277 34.4
2015-Jul-06 13:46 246 33.9
2015-Jul-06 13:41 260 33.9
2015-Jul-06 13:36 258 34.4
2015-Jul-06 13:31 233 34.4
2015-Jul-06 13:26 211 33.9
2015-Jul-06 13:21 159 34.4
2015-Jul-06 13:16 177 33.9
2015-Jul-06 13:11 233 33.9
2015-Jul-06 13:06 199 33.9
2015-Jul-06 12:56 231 33.3
2015-Jul-06 12:51 216 33.3
2015-Jul-06 12:46 203 33.3
2015-Jul-06 12:41 260 33.3
2015-Jul-06 12:36 278 33.3
2015-Jul-06 12:31 252 33.3
2015-Jul-06 12:26 169 33.3
2015-Jul-06 12:21 244 33.3
2015-Jul-06 12:16 221 32.8
2015-Jul-06 12:11 244 32.8
2015-Jul-06 12:06 211 32.8
2015-Jul-06 12:01 202 32.8
2015-Jul-06 11:56 242 32.8
2015-Jul-06 11:51 243 32.8
2015-Jul-06 11:46 240 32.2
2015-Jul-06 11:41 238 32.2
2015-Jul-06 11:36 186 32.8
2015-Jul-06 11:31 143 32.2
2015-Jul-06 11:26 252 32.8
2015-Jul-06 11:21 250 32.8
2015-Jul-06 11:16 244 32.2
2015-Jul-06 11:11 244 32.2
2015-Jul-06 11:06 242 32.2
2015-Jul-06 11:01 250 32.2
2015-Jul-06 10:56 233 32.2
2015-Jul-06 10:51 199 31.7
2015-Jul-06 10:46 254 31.7
2015-Jul-06 10:41 233 31.7
2015-Jul-06 10:36 211 31.7
2015-Jul-06 10:31 259 31.1
2015-Jul-06 10:26 203 31.7
2015-Jul-06 10:21 262 31.1
2015-Jul-06 10:16 232 31.1
2015-Jul-06 10:11 260 31.7
2015-Jul-06 10:06 293 31.1
2015-Jul-06 10:01 231 31.1
2015-Jul-06 09:56 249 31.1
2015-Jul-06 09:51 250 31.1
2015-Jul-06 09:46 264 31.1
2015-Jul-06 09:41 269 30.6
2015-Jul-06 09:36 244 30.6
2015-Jul-06 09:31 240 30.6
2015-Jul-06 09:26 232 30.6
2015-Jul-06 09:21 226 30.6
2015-Jul-06 09:16 268 30.0
2015-Jul-06 09:11 221 30.0
2015-Jul-06 09:06 203 30.0
2015-Jul-06 09:01 240 29.4
2015-Jul-06 08:56 235 29.4
2015-Jul-06 08:51 225 29.4
2015-Jul-06 08:46 229 28.9
2015-Jul-06 08:41 181 28.9
2015-Jul-06 08:36 242 28.9
2015-Jul-06 08:31 181 28.3
2015-Jul-06 08:26 170 28.3
2015-Jul-06 08:21 211 28.3
2015-Jul-06 08:16 216 28.3
2015-Jul-06 08:11 235 28.3
2015-Jul-06 08:06 211 27.8
2015-Jul-06 08:01 200 27.8
2015-Jul-06 07:56 200 27.2
2015-Jul-06 07:51 201 27.2
2015-Jul-06 07:46 200 26.7
2015-Jul-06 07:41 200 26.7
2015-Jul-06 07:36 200 26.1
2015-Jul-06 07:31 200 26.1
2015-Jul-06 07:26 200 26.1
2015-Jul-06 07:21 200 25.6
2015-Jul-06 07:16 282 25.6
2015-Jul-06 07:11 282 25.0
2015-Jul-06 07:06 283 25.0
2015-Jul-06 07:01 283 24.4
2015-Jul-06 06:56 283 24.4
2015-Jul-06 06:51 284 23.9
2015-Jul-06 06:46 283 23.9
2015-Jul-06 06:41 283 23.3
2015-Jul-06 06:36 283 22.2
2015-Jul-06 06:31 283 21.1
2015-Jul-06 06:26 284 20.0
2015-Jul-06 06:21 282 18.9
2015-Jul-06 06:16 284 17.8
2015-Jul-06 06:11 284 17.2
2015-Jul-06 06:06 283 16.7
2015-Jul-06 06:01 283 16.1
2015-Jul-06 05:56 283 15.6
2015-Jul-06 05:51 283 15.0
2015-Jul-06 05:46 283 15.0
2015-Jul-06 05:41 283 14.4
2015-Jul-06 05:36 283 13.9
2015-Jul-06 05:31 283 13.9
2015-Jul-06 05:26 283 13.3
2015-Jul-06 05:21 282 13.3
2015-Jul-06 05:16 282 13.3
2015-Jul-06 05:11 282 13.3
2015-Jul-06 05:06 283 12.8
2015-Jul-06 05:01 282 12.8
2015-Jul-06 04:56 283 12.8
2015-Jul-06 04:51 283 12.8
2015-Jul-06 04:46 283 12.8
2015-Jul-06 04:41 283 12.8
2015-Jul-06 04:36 282 13.3
2015-Jul-06 04:31 282 13.3
2015-Jul-06 04:26 284 13.3
2015-Jul-06 04:21 282 13.3
2015-Jul-06 04:16 283 13.3
2015-Jul-06 04:11 282 13.3
2015-Jul-06 04:06 283 13.3
2015-Jul-06 04:01 283 13.3
2015-Jul-06 03:56 283 13.3
2015-Jul-06 03:51 283 13.3
2015-Jul-06 03:46 283 13.3
2015-Jul-06 03:41 283 13.3
2015-Jul-06 03:36 285 13.3
2015-Jul-06 03:31 283 13.9
2015-Jul-06 03:26 283 13.9
2015-Jul-06 03:21 283 13.9
2015-Jul-06 03:16 283 13.9
2015-Jul-06 03:11 282 13.9
2015-Jul-06 03:06 283 14.4
2015-Jul-06 03:01 284 14.4
2015-Jul-06 02:56 283 14.4
2015-Jul-06 02:51 283 14.4
2015-Jul-06 02:46 283 14.4
2015-Jul-06 02:41 283 14.4
2015-Jul-06 02:36 283 14.4
2015-Jul-06 02:31 284 14.4
2015-Jul-06 02:26 283 14.4
2015-Jul-06 02:21 283 14.4
2015-Jul-06 02:16 282 14.4
2015-Jul-06 02:11 283 14.4
2015-Jul-06 02:06 283 14.4
2015-Jul-06 02:01 283 14.4
2015-Jul-06 01:56 283 14.4
2015-Jul-06 01:51 283 14.4
2015-Jul-06 01:46 283 14.4
2015-Jul-06 01:41 283 14.4
2015-Jul-06 01:36 283 14.4
2015-Jul-06 01:31 283 15.0
2015-Jul-06 01:26 283 15.0
2015-Jul-06 01:21 283 15.0
2015-Jul-06 01:16 283 15.0
2015-Jul-06 01:11 284 15.0
2015-Jul-06 01:06 283 15.6
2015-Jul-06 01:01 283 15.6
2015-Jul-06 00:56 283 15.6
2015-Jul-06 00:51 283 15.6
2015-Jul-06 00:46 282 15.6
2015-Jul-06 00:41 283 15.6
2015-Jul-06 00:36 283 16.1
2015-Jul-06 00:31 283 16.1
2015-Jul-06 00:26 283 16.1
2015-Jul-06 00:21 284 16.1
2015-Jul-06 00:16 282 16.1
2015-Jul-06 00:11 283 16.1
2015-Jul-06 00:06 283 16.7
2015-Jul-06 00:01 283 16.7
2015-Jul-05 23:56 283 16.7
2015-Jul-05 23:51 283 17.2
2015-Jul-05 23:46 282 17.2
2015-Jul-05 23:41 282 17.8
2015-Jul-05 23:36 283 17.8
2015-Jul-05 23:31 282 17.8
2015-Jul-05 23:26 281 18.3
2015-Jul-05 23:21 283 18.3
2015-Jul-05 23:16 283 18.9
2015-Jul-05 23:11 283 18.9
2015-Jul-05 23:06 283 19.4
2015-Jul-05 23:01 283 19.4
2015-Jul-05 22:56 283 19.4
2015-Jul-05 22:51 283 19.4
2015-Jul-05 22:46 283 19.4
2015-Jul-05 22:41 282 19.4
2015-Jul-05 22:36 283 19.4
2015-Jul-05 22:31 282 18.9
2015-Jul-05 22:26 284 18.9
2015-Jul-05 22:21 283 18.9
2015-Jul-05 22:16 283 18.3
2015-Jul-05 22:11 283 18.3
2015-Jul-05 22:06 283 18.3
2015-Jul-05 22:01 282 18.3
2015-Jul-05 21:56 283 18.9
2015-Jul-05 21:51 283 18.9
2015-Jul-05 21:46 283 18.3
2015-Jul-05 21:41 283 18.3
2015-Jul-05 21:36 283 18.9
2015-Jul-05 21:31 283 18.9
2015-Jul-05 21:26 282 19.4
2015-Jul-05 21:21 282 19.4
2015-Jul-05 21:16 283 19.4
2015-Jul-05 21:11 283 20.0
2015-Jul-05 21:06 283 20.0
2015-Jul-05 21:01 283 20.0
2015-Jul-05 20:56 283 20.6
2015-Jul-05 20:51 283 20.6
2015-Jul-05 20:46 283 20.6
2015-Jul-05 20:41 283 21.1
2015-Jul-05 20:36 283 21.1
2015-Jul-05 20:31 282 21.7
2015-Jul-05 20:26 282 21.7
2015-Jul-05 20:21 282 22.2
2015-Jul-05 20:16 283 22.2
2015-Jul-05 20:11 283 22.8
2015-Jul-05 20:06 283 23.3
2015-Jul-05 20:01 283 23.3
2015-Jul-05 19:56 283 23.9
2015-Jul-05 19:51 283 24.4
2015-Jul-05 19:46 283 25.0
2015-Jul-05 19:41 283 25.6
2015-Jul-05 19:36 283 26.7
2015-Jul-05 19:31 284 27.2
2015-Jul-05 19:26 283 27.8
2015-Jul-05 19:21 283 28.3
2015-Jul-05 19:16 282 28.9
2015-Jul-05 19:11 283 28.9
2015-Jul-05 19:06 282 29.4
2015-Jul-05 19:01 282 29.4
2015-Jul-05 18:56 283 30.0
2015-Jul-05 18:51 283 30.6
2015-Jul-05 18:46 283 30.6
2015-Jul-05 18:41 260 31.1
2015-Jul-05 18:36 259 31.1
2015-Jul-05 18:31 259 31.1
2015-Jul-05 18:26 260 31.1
2015-Jul-05 18:21 260 31.1
2015-Jul-05 18:16 259 31.7
2015-Jul-05 18:11 260 31.7
2015-Jul-05 18:06 236 32.2
2015-Jul-05 18:01 229 32.2
2015-Jul-05 17:56 277 32.2
2015-Jul-05 17:51 277 32.2
2015-Jul-05 17:46 271 32.2
2015-Jul-05 17:41 230 31.7
2015-Jul-05 17:36 245 31.7
2015-Jul-05 17:31 285 31.7
2015-Jul-05 17:26 261 31.7
2015-Jul-05 17:21 282 31.7
2015-Jul-05 17:16 230 32.2
2015-Jul-05 17:11 202 32.2
2015-Jul-05 17:06 239 32.2
2015-Jul-05 17:01 295 32.2
2015-Jul-05 16:56 279 32.2
2015-Jul-05 16:51 258 32.8
2015-Jul-05 16:46 270 32.8
2015-Jul-05 16:41 269 32.8
2015-Jul-05 16:36 258 32.2
2015-Jul-05 16:31 263 32.8
2015-Jul-05 16:26 273 32.8
2015-Jul-05 16:21 241 32.8
2015-Jul-05 16:16 251 32.8
2015-Jul-05 16:11 267 32.8
2015-Jul-05 16:06 281 32.8
2015-Jul-05 16:01 242 32.8
2015-Jul-05 15:56 244 33.3
2015-Jul-05 15:51 294 33.3
2015-Jul-05 15:46 269 33.3
2015-Jul-05 15:41 265 33.3
2015-Jul-05 15:36 174 33.3
2015-Jul-05 15:26 259 33.3
2015-Jul-05 15:21 244 33.3
2015-Jul-05 15:16 205 33.3
2015-Jul-05 15:11 248 33.3
2015-Jul-05 15:06 241 33.9
2015-Jul-05 15:01 288 33.3
2015-Jul-05 14:56 221 33.3
2015-Jul-05 14:51 287 32.8
2015-Jul-05 14:46 176 32.8
2015-Jul-05 14:41 179 32.8
2015-Jul-05 14:36 267 32.8
2015-Jul-05 14:31 279 32.8
2015-Jul-05 14:26 211 32.8
2015-Jul-05 14:21 231 32.8
2015-Jul-05 14:16 237 32.8
2015-Jul-05 14:11 245 33.3
2015-Jul-05 14:06 221 32.8
2015-Jul-05 14:01 255 32.8
2015-Jul-05 13:56 211 32.8
2015-Jul-05 13:51 216 32.8
2015-Jul-05 13:46 225 32.8
2015-Jul-05 13:41 250 32.8
2015-Jul-05 13:36 270 32.8
2015-Jul-05 13:31 284 32.2
2015-Jul-05 13:26 265 32.2
2015-Jul-05 13:21 244 32.2
2015-Jul-05 13:16 259 32.2
2015-Jul-05 13:11 236 31.7
2015-Jul-05 13:06 237 32.2
2015-Jul-05 13:01 250 32.2
2015-Jul-05 12:56 183 32.2
2015-Jul-05 12:51 239 31.7
2015-Jul-05 12:46 185 31.7
2015-Jul-05 12:41 211 31.7
2015-Jul-05 12:36 233 31.7
2015-Jul-05 12:31 268 31.1
2015-Jul-05 12:26 227 31.1
2015-Jul-05 12:21 269 31.1
2015-Jul-05 12:16 221 31.7
2015-Jul-05 12:11 216 31.1
2015-Jul-05 12:06 242 31.7
2015-Jul-05 12:01 246 31.1
2015-Jul-05 11:56 245 31.1
2015-Jul-05 11:46 245 31.7
2015-Jul-05 11:41 211 31.1
2015-Jul-05 11:36 198 31.1
2015-Jul-05 11:31 231 31.1
2015-Jul-05 11:26 184 30.6
2015-Jul-05 11:21 187 30.6
2015-Jul-05 11:16 261 30.6
2015-Jul-05 11:11 246 30.6
2015-Jul-05 11:06 242 30.6
2015-Jul-05 11:01 244 30.6
2015-Jul-05 10:56 235 30.0
2015-Jul-05 10:51 230 30.0
2015-Jul-05 10:46 200 30.0
2015-Jul-05 10:41 246 30.0
2015-Jul-05 10:36 275 30.0
2015-Jul-05 10:31 260 30.0
2015-Jul-05 10:26 161 29.4
2015-Jul-05 10:21 227 29.4
2015-Jul-05 10:16 248 29.4
2015-Jul-05 10:11 235 29.4
2015-Jul-05 10:06 259 29.4
2015-Jul-05 10:01 233 29.4
2015-Jul-05 09:56 221 29.4
2015-Jul-05 09:51 173 28.9
2015-Jul-05 09:46 211 28.9
2015-Jul-05 09:41 144 28.9
2015-Jul-05 09:36 196 28.3
2015-Jul-05 09:31 183 28.3
2015-Jul-05 09:26 232 27.8
2015-Jul-05 09:21 185 27.8
2015-Jul-05 09:16 211 27.8
2015-Jul-05 09:11 242 27.8
2015-Jul-05 09:06 221 27.2
2015-Jul-05 09:01 229 27.2
2015-Jul-05 08:56 235 27.2
2015-Jul-05 08:51 204 27.2
2015-Jul-05 08:46 252 26.7
2015-Jul-05 08:36 191 26.1
2015-Jul-05 08:31 194 26.1
2015-Jul-05 08:26 233 25.6
2015-Jul-05 08:21 211 25.6
2015-Jul-05 08:16 237 25.0
2015-Jul-05 08:11 238 25.0
2015-Jul-05 08:06 232 25.0
2015-Jul-05 08:01 229 25.0
2015-Jul-05 07:56 226 24.4
2015-Jul-05 07:51 221 24.4
2015-Jul-05 07:46 164 23.9
2015-Jul-05 07:41 164 23.9
2015-Jul-05 07:36 175 23.9
2015-Jul-05 07:31 177 23.9
2015-Jul-05 07:26 221 23.9
2015-Jul-05 07:21 248 23.9
2015-Jul-05 07:16 251 23.3
2015-Jul-05 07:11 321 23.3
2015-Jul-05 07:06 320 22.8
2015-Jul-05 07:01 320 21.7
2015-Jul-05 06:56 321 21.1
2015-Jul-05 06:51 320 20.6
2015-Jul-05 06:46 319 20.0
2015-Jul-05 06:41 321 19.4
2015-Jul-05 06:36 320 18.9
2015-Jul-05 06:31 321 17.8
2015-Jul-05 06:26 320 17.2
2015-Jul-05 06:21 320 16.1
2015-Jul-05 06:16 322 15.6
2015-Jul-05 06:11 321 14.4
2015-Jul-05 06:06 321 13.9
2015-Jul-05 06:01 321 13.3